Home   Weather   Ahmedabad   Past weeks

Flag for India Past Weather in Ahmedabad, Gujarat, India — Yesterday and Last 2 Weeks

Now
84 °F

Clear.


Feels Like: 82 °F
Forecast: 75 / 101 °F
Wind: 6 mph from Northwest

Location: Ahmadabad Airport

Current Time: Apr 27, 2017 at 3:12:57 am

Latest Report: Apr 27, 2017 at 2:30 am


Visibility: 2 mi

Pressure: 29.80 "Hg

Humidity: 27%

Dew Point: 46 °F

Location of AhmedabadLocation

Past Weather in Ahmedabad — Graph

°F

Ahmedabad Temperature Yesterday

Maximum temperature yesterday: 100 °F (at 4:00 pm)
Minimum temperature yesterday: 77 °F (at 5:00 am)
Average temperature yesterday: 89 °F

High & Low Weather Summary for the Past Weeks

 TemperatureHumidityPressure
High111 °F (Apr 13, 4:00 pm)84% (Apr 21, 5:30 am)29.89 "Hg (Apr 21, 5:30 am)
Low72 °F (Apr 12, 6:00 am)6% (Apr 13, 4:00 pm)29.59 "Hg (Apr 19, 4:30 pm)
Average92 °F35%29.75 "Hg
* Reported Apr 12 1:30 am — Apr 27 1:30 am, Ahmedabad, Weather by CustomWeather, © 2017

Note: Actual official high and low records may vary slightly from our data, if they occured in-between our weather recording intervals... More about our weather records

Advertising

Ahmedabad Weather History for the Previous 24 Hours

Scroll right to see more
 ConditionsComfort  
Time TempWeatherWind HumidityBarometerVisibility
1:30 am
Thu, Apr 27
86 °FClear.8 mph25%29.83 "Hg2 mi
1:00 am88 °FClear.6 mph29%29.83 "Hg2 mi
12:30 am84 °FClear.6 mph48%29.83 "Hg2 mi
12:00 am86 °FClear.6 mph49%29.83 "Hg2 mi
11:30 pm
Wed, Apr 26
88 °FClear.8 mph46%29.83 "Hg2 mi
11:00 pm88 °FClear.6 mph46%29.83 "Hg2 mi
10:30 pm88 °FClear.9 mph43%29.83 "Hg2 mi
10:00 pm88 °FClear.8 mph35%29.83 "Hg2 mi
9:30 pm93 °FClear.5 mph26%29.80 "Hg2 mi
9:00 pm93 °FClear.5 mph26%29.80 "Hg2 mi
8:30 pm93 °FClear.5 mph28%29.77 "Hg2 mi
8:00 pm95 °FClear.5 mph26%29.77 "Hg2 mi
7:30 pm95 °FClear.6 mph23%29.77 "Hg2 mi
7:00 pm99 °FClear.5 mph18%29.74 "Hg3 mi
6:30 pm99 °FClear.6 mph18%29.74 "Hg4 mi
6:00 pm100 °FClear.5 mph16%29.74 "Hg4 mi
5:30 pm100 °FClear.6 mph17%29.74 "Hg4 mi
5:00 pm100 °FClear.6 mph17%29.74 "Hg4 mi
4:30 pm100 °FClear.10 mph20%29.74 "Hg4 mi
4:00 pm100 °FClear.8 mph21%29.77 "Hg4 mi
3:00 pm99 °FClear.9 mph21%29.77 "Hg4 mi
2:30 pm99 °FClear.10 mph22%29.80 "Hg4 mi
2:00 pm99 °FClear.7 mph22%29.80 "Hg4 mi
1:30 pm97 °FClear.5 mph25%29.83 "Hg4 mi
1:00 pm95 °FClear.9 mph32%29.83 "Hg4 mi
12:30 pm93 °FClear.9 mph36%29.86 "Hg4 mi
12:00 pm93 °FClear.5 mph39%29.86 "Hg4 mi
11:30 am91 °FClear.9 mph41%29.86 "Hg3 mi
11:00 am90 °FClear.6 mph43%29.89 "Hg3 mi
10:30 am88 °FClear.7 mph46%29.89 "Hg2 mi
9:30 am86 °FClear.N/A52%29.89 "Hg2 mi
9:00 am84 °FHaze.6 mph58%29.89 "Hg2 mi
8:30 am81 °FHaze.6 mph66%29.89 "Hg2 mi
8:00 am81 °FScattered clouds.6 mph70%29.86 "Hg2 mi
7:30 am79 °FScattered clouds.6 mph74%29.86 "Hg2 mi
7:00 am79 °FScattered clouds.6 mph74%29.86 "Hg2 mi
6:30 am79 °FHaze.5 mph74%29.83 "Hg2 mi
6:00 am79 °FHaze.5 mph74%29.83 "Hg2 mi
5:00 am77 °FHaze.5 mph74%29.80 "Hg2 mi
4:30 am81 °FHaze.8 mph62%29.77 "Hg2 mi
4:00 am81 °FClear.5 mph54%29.77 "Hg2 mi
3:30 am81 °FClear.6 mph58%29.77 "Hg2 mi
3:00 am82 °FHaze.5 mph58%29.77 "Hg2 mi
Weather by CustomWeather, © 2017

See weather overviewHow to use our weather pages